Regional Weather Roundup
Issued by NWS Upton, NY

Current Version | Previous Version | Text Only | Print | Product List | Glossary On
Versions: 1 2 3 4 5 6 7 8 9 10 11 12 13 14 15 16 17 18 19 20 21 22 23 24 25 26 27 28 29 30 31 32 33 34 35 36 37 38 39 40 41 42 43 44 45 46 47 48 49 50
000
ASUS41 KOKX 221709
RWROKX

REGIONAL WEATHER ROUNDUP
NATIONAL WEATHER SERVICE NEW YORK NY
100 PM EDT SAT APR 22 2017

NOTE: "FAIR" INDICATES FEW OR NO CLOUDS BELOW 12,000 FEET WITH NO
SIGNIFICANT WEATHER AND/OR OBSTRUCTIONS TO VISIBILITY.

NYZ071-072-176-178-NJZ106-104-221800-
NEW YORK CITY METRO AREA

CITY           SKY/WX    TMP DP  RH WIND       PRES   REMARKS
Central Park   LGT RAIN  54  50  86 VRB6      29.94F
Wall St Helipt LGT RAIN  56  49  77 VRB5      29.93F
Bronx Bot Gard   N/A     54  48  82 N6        29.92F
LaGuardia APRT LGT RAIN  54  48  80 E8        29.92F
Kennedy INTL   CLOUDY    58  49  72 N14       29.94S
Breezy Point     N/A     55 N/A N/A NE7         N/A
Newark/Liberty LGT RAIN  56  50  80 NE6       29.92F
Teterboro      DRIZZLE   55  50  83 NE5       29.92F
$$

NYZ177-179-078>081-221800-
LONG ISLAND NEW YORK

CITY           SKY/WX    TMP DP  RH WIND       PRES   REMARKS
Jones Beach      N/A     54 N/A N/A NE14        N/A
Matinecock PT    N/A     50 N/A N/A E9          N/A
Farmingdale    CLOUDY    54  46  74 N12       29.93S
MacArthur/ISP  CLOUDY    52  45  77 N13       29.92F
Shirley        CLOUDY    50  45  83 N13       29.93S
Mt Sinai Harb    N/A     48 N/A N/A N5          N/A
Westhampton    LGT RAIN  50  44  80 N12       29.93F
East Hampton   DRIZZLE   48  44  87 N7        29.91S
Montauk          N/A     48  45  89 N6        29.93F
$$

NYZ052-065-067-221800-
HUDSON VALLEY

CITY           SKY/WX    TMP DP  RH WIND       PRES   REMARKS
White Plains   LGT RAIN  53  47  79 N5        29.91F
Larchmont Harb   N/A     48 N/A N/A NE7         N/A
Croton O-T Hud   N/A     54 N/A N/A N3          N/A
Newburgh       CLOUDY    50  50 100 VRB6      29.94F
Montgomery     CLOUDY    53  48  83 NE8       29.92F
Poughkeepsie   CLOUDY    52  46  80 N9        29.92F
Albany         CLOUDY    54  38  54 W15G21    29.95F
$$

NJZ001-105-106-008-010-013-015-019>022-104-221800-
NEW JERSEY

CITY           SKY/WX    TMP DP  RH WIND       PRES   REMARKS
Newark/Liberty LGT RAIN  56  50  80 NE6       29.92F
Teterboro      DRIZZLE   55  50  83 NE5       29.92F
Caldwell       CLOUDY    55  47  74 VRB3      29.93F
Somerville     LGT RAIN  54  48  80 N5        29.92F
Linden         LGT RAIN  56  49  79 CALM      29.93F
Sussex         CLOUDY    54  43  66 N7        29.93F
Andover          N/A     54  43  66 N9        29.93F
Trenton        RAIN      55  51  86 N8        29.93S FOG
Millville      CLOUDY    55  53  93 N8        29.93R
Atlantic City  CLOUDY    54  50  86 NE9       29.92S
Wrightstown    CLOUDY    56  49  76 N8        29.91S
Toms River     CLOUDY    55  52  89 VRB3      29.94S
Belmar         CLOUDY    56  48  74 N8        29.94S
$$

PAZ047>061-062-071-221800-
EASTERN PENNSYLVANIA

CITY           SKY/WX    TMP DP  RH WIND       PRES   REMARKS
Philadelphia   LGT RAIN  55  49  80 N9        29.94S
Allentown      CLOUDY    57  44  62 NE6       29.94S
Scranton       CLOUDY    52  42  69 N12       29.95F
$$

CTZ002-004>006-009-010-012-RIZ004-006-007-MAZ004-011-015-221800-
SOUTHERN NEW ENGLAND
 IN CT

CITY           SKY/WX    TMP DP  RH WIND       PRES   REMARKS
Bradley INTL   LGT RAIN  49  44  83 NE6       29.94F
Hartford       LGT RAIN  50  45  83 NE8       29.94F
Danbury        CLOUDY    51  49  92 NE6       29.93F
Wtrbury/Oxford CLOUDY    48  45  87 NE5       29.94F
Bridgeport     LGT RAIN  53  47  79 NE6       29.94F
Meriden        LGT RAIN  51  47  86 NE5       29.93F
New Haven      LGT RAIN  50  47  89 N9        29.93F
Chester        LGT RAIN  48  46  93 N9        29.93F
Groton         CLOUDY    51  44  77 N13       29.92S
Wilimantic     LGT RAIN  49  45  86 N6        29.95S

 IN RI

CITY           SKY/WX    TMP DP  RH WIND       PRES   REMARKS
Providence     LGT RAIN  47  44  90 N12       29.94F
Block Island   CLOUDY    47  45  93 NE12      29.90F
Westerly       CLOUDY    52  45  77 N8        29.93F
 IN MA

CITY           SKY/WX    TMP DP  RH WIND       PRES   REMARKS
Boston         CLOUDY    44  41  89 N10       29.96R
Worcester      LGT RAIN  42  39  89 N5        29.93F
Westfield      CLOUDY    50  44  80 VRB5      29.93F
Provincetown   LGT RAIN  44  43  96 N8        29.92R
Nantucket      CLOUDY    48  46  93 N16       29.88F
$$

ANZ330-335-338-340-345-350-353-355-221800-
COASTAL MARINE OBSERVATIONS


STATION/POSITION TIME  SKY/WX   TEMP    WIND        PRES    VSBY  WAVE
                                AIR SEA DIR/SP/G                  HT/PER
                 (UTC)          (F)     (DEG/KT/KT) (MB)    (MI)  (FT/S)
NY HARB ENTRANCE 1550            50 50   30/ 10/ 12 1013.6          4/13
20 S FIRE ISLAND 1650            47 47   30/  8/ 10 1012.9          5/12
GREAT SOUTH BAY  1630            51 56  360/ 12/ 16   N/A
23 SSW MONTAUK P 1550            45 46              1013.2          5/11
15 E BARNEGAT LI 1630               50                N/A           5/13
HUDSON CANYON    1550            46 47   40/ 14/ 14 1012.2          5/11
KINGS POINT      1648            51 46   CALM  /  4 1013.3
EXECUTION ROCKS  NOT AVBL
CENTRAL LI SOUND 1630            47     310/  4/  6   N/A           1
EASTERN LI SOUND NOT AVBL
ROBBINS REEF     1648            54      20/  8/  9 1013.6
$$


>>>>>>>>>>>>>>>>>>>>>>>>>>>> KEY <<<<<<<<<<<<<<<<<<<<<<<<<<<
>                                                          <
>     SKY/WX - Sky Condition/Present Weather               <
>     TMP    - Temperature in Fahrenheit                   <
>     DP     - Dew Point in Fahrenheit                     <
>     RH     - Relative Humidity in Percent                <
>     WIND   - Direction (from) and Speed in MPH           <
>     PRES   - Mean Sea Level Pressure (inches of Hg)      <
>     WCI    - Wind Chill Index                            <
>     VSB    - VISIBILITY IN MILES                         <
>     HX     - HEAT INDEX                                  <
>     TC     - TEMPERATURE IN CELSIUS                      <
>     VRB    - VARIABLE WIND DIRECTION                     <
>                                                          <
>>>>>>>>>>>>>>>>>>>>>>>>>>>> KEY <<<<<<<<<<<<<<<<<<<<<<<<<<<



USA.gov is the U.S. government's official web portal to all federal, state and local government web resources and services.